User: anonymous   Login
Location: Caltech
(34.1382°N, 118.1253°W)
Time: 13:31:42
(UTC-07:00)
Language:

CZ-2C R/B - Orbit

View from above orbital plane
View from above orbital plane
View from above satellite
View from above satellite

Ground track
Ground track

The orbit data is extracted from the following two-line orbital elements,

1 28480U 04046B   15150.00475256  .00000048  00000-0  34293-4 0  9994
2 28480 098.1376 285.2250 0140974 276.5082 191.7065 14.25501332547491
Epoch (UTC): 30 May 2015 00:06:50
Eccentricity: 0.0140974
inclination: 98.1376°
perigee height: 705 km
apogee height: 908 km
right ascension of ascending node: 285.2250°
argument of perigee: 276.5082°
revolutions per day: 14.25501332
mean anomaly at epoch: 191.7065°
orbit number at epoch: 54749

The dashed part of the orbit path shows where the satellite is in the earth's shadow,  

DLR